Regional Weather Roundup
Issued by NWS Sioux Falls, SD

Home | Current Version | Previous Version | Text Only | Print | Product List | Glossary Off
Versions: 1 2 3 4 5 6 7 8 9 10 11 12 13 14 15 16 17 18 19 20 21 22 23 24 25 26 27 28 29 30 31 32 33 34 35 36 37 38 39 40 41 42 43 44 45 46 47 48 49 50

000
ASUS43 KFSD 280402
RWRFSD

WEATHER ROUNDUP FOR SE SOUTH DAKOTA/SW MINNESOTA/NW IOWA
NATIONAL WEATHER SERVICE SIOUX FALLS SD
1000 PM CST THU NOV 27 2014

NOTE: "FAIR" INDICATES FEW OR NO CLOUDS BELOW 12,000 FEET WITH NO
SIGNIFICANT WEATHER AND OR OBSTRUCTIONS TO VISIBILITY.


SDZ038>040-050-052>070-280500-
SOUTHEAST SOUTH DAKOTA

CITY           SKY/WX    TMP DP  RH WIND       PRES   REMARKS
CHAMBERLAIN    NOT AVBL
HURON          MOCLDY    17  10  74 S16G23    29.97F WCI   2
MADISON        CLOUDY    14   9  79 S17G26    30.01F WCI  -3
MITCHELL       CLOUDY    20  12  71 S22G30    29.99F WCI   3
SIOUX FALLS    CLOUDY    15   8  73 SE14G24   30.07F WCI   0
WINNER         MOCLDY    39  23  52 S22       29.85F
YANKTON        CLOUDY    21  12  68 SE18G24   30.07F WCI   6
$$

MNZ071-072-080-081-089-090-097-098-280500-
SOUTHWEST MINNESOTA

CITY           SKY/WX    TMP DP  RH WIND       PRES   REMARKS
FAIRMONT       CLOUDY     7   0  72 S14       30.23F WCI -10
JACKSON        CLOUDY     9   0  66 S14       30.18F WCI  -8
LUVERNE        MOCLDY    14   9  79 SE13      30.11F WCI   0
MARSHALL       MOCLDY    10   1  67 SE17      30.12F WCI  -7
MONTEVIDEO     LGT SNOW   5   1  85 S16       30.18F WCI -14
PIPESTONE      CLOUDY    12   7  79 S12G17    30.07F WCI  -2
REDWOOD FALLS  CLOUDY     4   0  83 SE15      30.21F WCI -14
TRACY          CLOUDY    11   3  71 S15       30.14F WCI  -5
WINDOM         CLOUDY     9   0  66 SE14      30.17F WCI  -8
WORTHINGTON    CLOUDY     9   3  78 SE15G23   30.12F WCI  -8
$$

IAZ001>003-012>014-020>022-031-032-NEZ013-014-SDZ071-280500-
NORTHWEST IOWA

CITY           SKY/WX    TMP DP  RH WIND       PRES   REMARKS
DENISON        PTCLDY    18  10  73 VRB5      30.20F WCI  11
ESTHERVILLE    CLOUDY     6  -1  73 SE15      30.20F WCI -12
SIOUX CITY     CLOUDY    20  11  68 SE14      30.16F WCI   7
SPENCER        CLOUDY    11   2  67 SE17      30.18F WCI  -6
$$

ABBREVIATIONS USED IN REMARKS
   TC - TEMPERATURE IN CELSIUS
  WCI - WIND CHILL INDEX
   HX - HEAT INDEX
  VSB - VISIBILITY




USA.gov is the U.S. government's official web portal to all federal, state and local government web resources and services.